WJA680 CYHM-CYYT

Flight info

Callsign WJA680
Flight time N/A
Altitude 37000
Route DUROT DCT UKPAG DCT LORKA Q907 MIVAD AVALN5
Aircraft B38M/M-SDE1FGHILORVWXY/HB1

Departure

Time 2026-04-24 20:04
Airport John C. Munro Hamilton International Airport (CYHM)

Arrival

Time N/A
Airport St. John's International Airport (CYYT)
Time Latitude Longitude Altitude Speed Heading
2026-04-24 19:40 43.16417 -79.92629 783 ft 0 kts 197°
2026-04-24 19:54 43.16433 -79.92622 780 ft 3 kts 197°
2026-04-24 19:54 43.16452 -79.92614 781 ft 3 kts 195°
2026-04-24 19:54 43.16472 -79.92607 782 ft 3 kts 193°
2026-04-24 19:55 43.16485 -79.92603 782 ft 3 kts 191°
2026-04-24 19:55 43.16512 -79.92597 783 ft 3 kts 183°
2026-04-24 19:55 43.16523 -79.92597 782 ft 2 kts 178°
2026-04-24 19:58 43.16508 -79.92591 783 ft 5 kts 150°
2026-04-24 19:58 43.16501 -79.92521 783 ft 10 kts 51°
2026-04-24 19:59 43.16581 -79.92504 785 ft 14 kts 349°
2026-04-24 19:59 43.16694 -79.92575 784 ft 22 kts 332°
2026-04-24 19:59 43.16844 -79.92691 782 ft 27 kts 330°
2026-04-24 19:59 43.17015 -79.92823 780 ft 30 kts 330°
2026-04-24 20:00 43.17208 -79.92974 785 ft 33 kts 329°
2026-04-24 20:00 43.17398 -79.93125 786 ft 27 kts 331°
2026-04-24 20:00 43.17574 -79.93277 783 ft 33 kts 310°
2026-04-24 20:00 43.17670 -79.93588 781 ft 38 kts 288°
2026-04-24 20:01 43.17742 -79.93941 784 ft 39 kts 290°
2026-04-24 20:01 43.17811 -79.94218 787 ft 29 kts 286°
2026-04-24 20:01 43.17873 -79.94484 789 ft 29 kts 288°
2026-04-24 20:01 43.17935 -79.94759 787 ft 31 kts 286°
2026-04-24 20:02 43.17977 -79.94948 787 ft 31 kts 286°
2026-04-24 20:02 43.17997 -79.95212 792 ft 17 kts 277°
2026-04-24 20:02 43.18038 -79.95277 794 ft 8 kts 38°
2026-04-24 20:02 43.18035 -79.95201 793 ft 10 kts 107°
2026-04-24 20:03 43.18003 -79.95057 789 ft 34 kts 106°
2026-04-24 20:03 43.17852 -79.94378 788 ft 113 kts 107°
2026-04-24 20:03 43.17541 -79.93022 814 ft 175 kts 108°
2026-04-24 20:03 43.17124 -79.91347 1357 ft 199 kts 105°
2026-04-24 20:04 43.16702 -79.89561 2375 ft 184 kts 106°
2026-04-24 20:04 43.16332 -79.87842 2890 ft 199 kts 108°
2026-04-24 20:04 43.15911 -79.85934 2898 ft 217 kts 108°
2026-04-24 20:04 43.15529 -79.83874 3219 ft 229 kts 99°
2026-04-24 20:05 43.15480 -79.81661 4036 ft 241 kts 91°
2026-04-24 20:05 43.15474 -79.79253 4683 ft 262 kts 90°
2026-04-24 20:05 43.15530 -79.76676 5333 ft 281 kts 77°
2026-04-24 20:05 43.16398 -79.74284 6203 ft 279 kts 46°
2026-04-24 20:06 43.17667 -79.72267 7198 ft 285 kts 47°
2026-04-24 20:06 43.18941 -79.70126 8163 ft 290 kts 47°
2026-04-24 20:06 43.20209 -79.67965 9160 ft 295 kts 48°
2026-04-24 20:06 43.21492 -79.65748 10146 ft 297 kts 49°
2026-04-24 20:07 43.22355 -79.64253 10608 ft 308 kts 48°
2026-04-24 20:07 43.23725 -79.61867 11000 ft 329 kts 49°
2026-04-24 20:07 43.25694 -79.58425 11485 ft 357 kts 49°
2026-04-24 20:07 43.27243 -79.55720 11916 ft 372 kts 49°
2026-04-24 20:08 43.28331 -79.53818 12298 ft 378 kts 49°
2026-04-24 20:08 43.30496 -79.50045 13347 ft 383 kts 49°
2026-04-24 20:08 43.32152 -79.47156 14039 ft 387 kts 49°
2026-04-24 20:08 43.33284 -79.45182 14504 ft 389 kts 49°
2026-04-24 20:09 43.34959 -79.42258 15227 ft 391 kts 48°
2026-04-24 20:09 43.36619 -79.39357 15939 ft 392 kts 48°
2026-04-24 20:09 43.38330 -79.36362 16608 ft 395 kts 47°
2026-04-24 20:09 43.40015 -79.33412 17256 ft 398 kts 47°
2026-04-24 20:10 43.41728 -79.30411 17911 ft 400 kts 47°
2026-04-24 20:10 43.43454 -79.27382 18503 ft 403 kts 47°
2026-04-24 20:10 43.45192 -79.24329 19039 ft 406 kts 47°
2026-04-24 20:10 43.46937 -79.21262 19579 ft 409 kts 47°
2026-04-24 20:11 43.48696 -79.18166 20116 ft 411 kts 47°
2026-04-24 20:11 43.50469 -79.15044 20655 ft 414 kts 47°
2026-04-24 20:11 43.52247 -79.11908 21163 ft 417 kts 47°
2026-04-24 20:11 43.54033 -79.08755 21695 ft 420 kts 47°
2026-04-24 20:12 43.55835 -79.05571 22229 ft 422 kts 47°
2026-04-24 20:12 43.57650 -79.02360 22761 ft 425 kts 47°
2026-04-24 20:12 43.59471 -78.99136 23232 ft 427 kts 47°
2026-04-24 20:12 43.61308 -78.95879 23701 ft 430 kts 47°
2026-04-24 20:13 43.63141 -78.92625 24100 ft 432 kts 46°
2026-04-24 20:13 43.64995 -78.89332 24513 ft 435 kts 46°
2026-04-24 20:13 43.66863 -78.86009 24910 ft 437 kts 46°
2026-04-24 20:13 43.68667 -78.82629 25296 ft 443 kts 52°
2026-04-24 20:14 43.70270 -78.78973 25712 ft 446 kts 53°
2026-04-24 20:14 43.71873 -78.75293 26074 ft 448 kts 53°
2026-04-24 20:14 43.73482 -78.71579 26463 ft 451 kts 53°
2026-04-24 20:14 43.75073 -78.67897 26849 ft 453 kts 52°
2026-04-24 20:15 43.76714 -78.64092 27199 ft 456 kts 52°
2026-04-24 20:15 43.78320 -78.60364 27548 ft 458 kts 52°
2026-04-24 20:15 43.79974 -78.56520 27905 ft 460 kts 52°
2026-04-24 20:15 43.81612 -78.52708 28247 ft 463 kts 52°
2026-04-24 20:16 43.83241 -78.48912 28580 ft 465 kts 52°
2026-04-24 20:16 43.84896 -78.45051 28914 ft 467 kts 52°
2026-04-24 20:16 43.86554 -78.41176 29211 ft 470 kts 52°
2026-04-24 20:16 43.88222 -78.37273 29651 ft 470 kts 51°
2026-04-24 20:17 43.89885 -78.33377 30118 ft 468 kts 51°
2026-04-24 20:17 43.93190 -78.25615 30913 ft 466 kts 51°
2026-04-24 20:17 43.94837 -78.21741 31312 ft 465 kts 51°
2026-04-24 20:18 43.95924 -78.19181 31588 ft 464 kts 51°
2026-04-24 20:18 43.98107 -78.14031 32101 ft 462 kts 51°
2026-04-24 20:18 43.99736 -78.10183 32499 ft 461 kts 51°
2026-04-24 20:18 44.01356 -78.06353 32870 ft 460 kts 51°
2026-04-24 20:19 44.02976 -78.02515 33231 ft 459 kts 51°
2026-04-24 20:19 44.04589 -77.98691 33613 ft 458 kts 51°
2026-04-24 20:19 44.06201 -77.94861 34028 ft 457 kts 50°
2026-04-24 20:19 44.07802 -77.91055 34337 ft 456 kts 50°
2026-04-24 20:20 44.09405 -77.87239 34631 ft 456 kts 50°
2026-04-24 20:20 44.11002 -77.83432 34917 ft 455 kts 50°
2026-04-24 20:20 44.12593 -77.79631 35193 ft 455 kts 50°
2026-04-24 20:20 44.14188 -77.75818 35465 ft 454 kts 50°
2026-04-24 20:21 44.15751 -77.72077 35721 ft 454 kts 50°
2026-04-24 20:21 44.17338 -77.68273 35979 ft 454 kts 50°
2026-04-24 20:21 44.18920 -77.64475 36231 ft 453 kts 51°
2026-04-24 20:21 44.20502 -77.60675 36464 ft 453 kts 51°
2026-04-24 20:22 44.22080 -77.56876 36741 ft 453 kts 50°
2026-04-24 20:22 44.23656 -77.53079 36936 ft 453 kts 50°
2026-04-24 20:22 44.26811 -77.45463 36967 ft 452 kts 50°
2026-04-24 20:23 44.29946 -77.37872 37008 ft 452 kts 51°
2026-04-24 20:23 44.33077 -77.30272 36992 ft 451 kts 51°
2026-04-24 20:24 44.36204 -77.22659 36984 ft 451 kts 51°
2026-04-24 20:24 44.39304 -77.15094 37018 ft 451 kts 50°
2026-04-24 20:25 44.42412 -77.07488 36994 ft 450 kts 50°
2026-04-24 20:25 44.45518 -76.99867 37007 ft 450 kts 51°
2026-04-24 20:26 44.48613 -76.92251 36987 ft 449 kts 51°
2026-04-24 20:26 44.51697 -76.84643 36990 ft 450 kts 51°
2026-04-24 20:27 44.54785 -76.77007 36994 ft 450 kts 51°
2026-04-24 20:27 44.57860 -76.69378 37038 ft 450 kts 51°
2026-04-24 20:28 44.60926 -76.61751 37007 ft 448 kts 51°
2026-04-24 20:28 44.63985 -76.54123 36998 ft 448 kts 51°
2026-04-24 20:29 44.67046 -76.46472 36995 ft 448 kts 51°
2026-04-24 20:29 44.70094 -76.38834 36991 ft 448 kts 51°
2026-04-24 20:30 44.73142 -76.31177 36989 ft 448 kts 51°
2026-04-24 20:30 44.76185 -76.23512 36998 ft 449 kts 52°
2026-04-24 20:31 44.77477 -76.19522 36982 ft 461 kts 62°
2026-04-24 20:31 44.78578 -76.15225 37025 ft 461 kts 60°
2026-04-24 20:31 44.80785 -76.06792 36982 ft 462 kts 61°
2026-04-24 20:32 44.82994 -75.98278 36985 ft 462 kts 61°
2026-04-24 20:32 44.85196 -75.89758 36988 ft 462 kts 61°
2026-04-24 20:33 44.87391 -75.81234 36979 ft 463 kts 61°
2026-04-24 20:33 44.89582 -75.72694 36994 ft 464 kts 62°
2026-04-24 20:34 44.91773 -75.64121 36977 ft 464 kts 62°
2026-04-24 20:34 44.93956 -75.55554 36977 ft 465 kts 63°
2026-04-24 20:35 44.96135 -75.46962 36981 ft 465 kts 63°
2026-04-24 20:35 44.98295 -75.38421 36983 ft 465 kts 63°
2026-04-24 20:36 45.00460 -75.29826 37020 ft 465 kts 64°
2026-04-24 20:36 45.02617 -75.21227 36996 ft 463 kts 64°
2026-04-24 20:37 45.04763 -75.12645 36985 ft 462 kts 64°
2026-04-24 20:37 45.06901 -75.04059 36984 ft 463 kts 64°
2026-04-24 20:38 45.09036 -74.95454 36990 ft 463 kts 64°
2026-04-24 20:38 45.11166 -74.86843 37012 ft 463 kts 64°
2026-04-24 20:39 45.13297 -74.78259 36982 ft 460 kts 63°
2026-04-24 20:39 45.15583 -74.69813 36969 ft 459 kts 63°
2026-04-24 20:40 45.17834 -74.61410 36974 ft 459 kts 63°
2026-04-24 20:40 45.20091 -74.52942 36969 ft 459 kts 63°
2026-04-24 20:41 45.22342 -74.44470 36973 ft 459 kts 63°
2026-04-24 20:41 45.24586 -74.35994 36992 ft 458 kts 63°
2026-04-24 20:42 45.26819 -74.27526 36974 ft 458 kts 63°
2026-04-24 20:42 45.29042 -74.19065 36972 ft 457 kts 63°
2026-04-24 20:43 45.31258 -74.10602 36978 ft 457 kts 63°
2026-04-24 20:43 45.33469 -74.02128 36975 ft 457 kts 63°
2026-04-24 20:44 45.35673 -73.93650 36973 ft 457 kts 63°
2026-04-24 20:44 45.37873 -73.85157 36972 ft 457 kts 63°
2026-04-24 20:45 45.40065 -73.76665 36972 ft 457 kts 63°
2026-04-24 20:45 45.42248 -73.68177 36969 ft 457 kts 63°
2026-04-24 20:46 45.44425 -73.59680 36974 ft 457 kts 63°
2026-04-24 20:46 45.46599 -73.51162 36991 ft 457 kts 63°
2026-04-24 20:47 45.48764 -73.42651 37014 ft 457 kts 63°
2026-04-24 20:47 45.50911 -73.34178 36990 ft 457 kts 63°
2026-04-24 20:48 45.53062 -73.25657 36991 ft 457 kts 63°
2026-04-24 20:48 45.55209 -73.17118 36998 ft 457 kts 63°
2026-04-24 20:49 45.57351 -73.08572 37010 ft 457 kts 63°
2026-04-24 20:49 45.59485 -73.00024 37012 ft 457 kts 63°
2026-04-24 20:50 45.61617 -72.91452 37015 ft 458 kts 64°
2026-04-24 20:50 45.63384 -72.84323 37021 ft 458 kts 64°
2026-04-24 20:51 45.65504 -72.75739 37023 ft 458 kts 64°
2026-04-24 20:51 45.67614 -72.67166 37011 ft 456 kts 64°
2026-04-24 20:52 45.69716 -72.58588 37016 ft 457 kts 64°
2026-04-24 20:52 45.71808 -72.50021 37008 ft 456 kts 64°
2026-04-24 20:53 45.73896 -72.41438 37007 ft 456 kts 64°
2026-04-24 20:53 45.75974 -72.32864 37006 ft 456 kts 64°
2026-04-24 20:54 45.78051 -72.24262 37000 ft 456 kts 64°
2026-04-24 20:54 45.80113 -72.15687 36996 ft 454 kts 64°
2026-04-24 20:55 45.82166 -72.07116 37007 ft 455 kts 64°
2026-04-24 20:55 45.84213 -71.98536 37038 ft 454 kts 64°
2026-04-24 20:56 45.86252 -71.89960 37004 ft 453 kts 64°
2026-04-24 20:56 45.88285 -71.81375 37015 ft 454 kts 64°
2026-04-24 20:57 45.90306 -71.72805 37011 ft 454 kts 65°
2026-04-24 20:57 45.92312 -71.64269 37007 ft 452 kts 65°
2026-04-24 20:58 45.94319 -71.55691 37021 ft 453 kts 65°
2026-04-24 20:58 45.96320 -71.47109 37031 ft 453 kts 65°
2026-04-24 20:59 45.98319 -71.38501 37013 ft 454 kts 65°
2026-04-24 20:59 46.00307 -71.29905 37012 ft 454 kts 65°
2026-04-24 21:00 46.02296 -71.21272 37006 ft 454 kts 65°
2026-04-24 21:00 46.04271 -71.12664 37005 ft 453 kts 65°
2026-04-24 21:01 46.06240 -71.04045 37009 ft 453 kts 65°
2026-04-24 21:01 46.08210 -70.95391 37008 ft 455 kts 65°
2026-04-24 21:02 46.10175 -70.86724 36995 ft 456 kts 66°
2026-04-24 21:02 46.12126 -70.78082 36997 ft 456 kts 66°
2026-04-24 21:03 46.14082 -70.69387 36992 ft 456 kts 66°
2026-04-24 21:03 46.16034 -70.60687 36999 ft 456 kts 66°
2026-04-24 21:04 46.17980 -70.51974 37017 ft 456 kts 66°
2026-04-24 21:04 46.19920 -70.43257 36993 ft 456 kts 66°
2026-04-24 21:05 46.21855 -70.34526 36998 ft 457 kts 66°
2026-04-24 21:05 46.23776 -70.25774 36990 ft 457 kts 67°
2026-04-24 21:06 46.25642 -70.16997 36990 ft 457 kts 67°
2026-04-24 21:06 46.27513 -70.08213 36990 ft 457 kts 67°
2026-04-24 21:07 46.29375 -69.99442 37021 ft 457 kts 68°
2026-04-24 21:07 46.31231 -69.90659 36984 ft 456 kts 68°
2026-04-24 21:08 46.33083 -69.81862 37000 ft 457 kts 68°
2026-04-24 21:08 46.34926 -69.73070 37000 ft 457 kts 68°
2026-04-24 21:09 46.36762 -69.64267 36992 ft 457 kts 68°
2026-04-24 21:09 46.38596 -69.55440 37014 ft 456 kts 68°
2026-04-24 21:10 46.40403 -69.46700 37028 ft 455 kts 69°
2026-04-24 21:10 46.42211 -69.37923 37008 ft 455 kts 69°
2026-04-24 21:11 46.44013 -69.29134 37008 ft 455 kts 69°
2026-04-24 21:11 46.45810 -69.20330 37008 ft 455 kts 69°
2026-04-24 21:12 46.47308 -69.12963 37005 ft 455 kts 69°
2026-04-24 21:12 46.49379 -69.02729 37013 ft 455 kts 69°
2026-04-24 21:13 46.51152 -68.93931 37002 ft 453 kts 69°
2026-04-24 21:13 46.52917 -68.85128 36989 ft 454 kts 69°
2026-04-24 21:14 46.54675 -68.76323 36991 ft 454 kts 69°
2026-04-24 21:14 46.56427 -68.67511 36983 ft 454 kts 69°
2026-04-24 21:15 46.58169 -68.58702 36986 ft 454 kts 69°
2026-04-24 21:15 46.59908 -68.49872 36993 ft 454 kts 70°
2026-04-24 21:16 46.61635 -68.41067 36976 ft 451 kts 70°
2026-04-24 21:16 46.63347 -68.32293 36983 ft 451 kts 70°
2026-04-24 21:17 46.65054 -68.23509 36979 ft 451 kts 70°
2026-04-24 21:17 46.66470 -68.16189 36972 ft 451 kts 70°
2026-04-24 21:18 46.68443 -68.05943 36971 ft 451 kts 70°
2026-04-24 21:18 46.70132 -67.97141 37001 ft 451 kts 70°
2026-04-24 21:19 46.71815 -67.88332 36972 ft 450 kts 70°
2026-04-24 21:19 46.73480 -67.79533 36969 ft 451 kts 70°
2026-04-24 21:20 46.75970 -67.66307 36965 ft 451 kts 70°
2026-04-24 21:21 46.77627 -67.57487 36960 ft 451 kts 70°
2026-04-24 21:21 46.79279 -67.48657 36966 ft 451 kts 70°
2026-04-24 21:22 46.80923 -67.39829 36965 ft 451 kts 70°
2026-04-24 21:22 46.82564 -67.30972 36964 ft 452 kts 70°
2026-04-24 21:23 46.84198 -67.22111 36961 ft 452 kts 70°
2026-04-24 21:23 46.85826 -67.13240 36961 ft 452 kts 70°
2026-04-24 21:24 46.87382 -67.04327 36947 ft 455 kts 76°
2026-04-24 21:24 46.88380 -66.95250 36950 ft 455 kts 76°
2026-04-24 21:25 46.89455 -66.86113 36961 ft 457 kts 76°
2026-04-24 21:25 46.90538 -66.76954 36968 ft 457 kts 76°
2026-04-24 21:26 46.91610 -66.67830 36951 ft 455 kts 76°
2026-04-24 21:26 46.92675 -66.58696 36947 ft 455 kts 76°
2026-04-24 21:27 46.93733 -66.49562 36955 ft 455 kts 76°
2026-04-24 21:27 46.94783 -66.40426 36966 ft 455 kts 77°
2026-04-24 21:28 46.95824 -66.31308 36950 ft 454 kts 77°
2026-04-24 21:28 46.96858 -66.22184 36959 ft 454 kts 77°
2026-04-24 21:29 46.97883 -66.13068 36955 ft 454 kts 77°
2026-04-24 21:29 46.98900 -66.03956 36964 ft 452 kts 77°
2026-04-24 21:30 46.99908 -65.94854 36987 ft 452 kts 77°
2026-04-24 21:30 47.00910 -65.85745 36963 ft 452 kts 77°
2026-04-24 21:31 47.01737 -65.78166 36969 ft 453 kts 77°
2026-04-24 21:31 47.02726 -65.69050 36972 ft 453 kts 77°
2026-04-24 21:32 47.03707 -65.59929 36971 ft 453 kts 77°
2026-04-24 21:32 47.04680 -65.50812 36975 ft 453 kts 78°
2026-04-24 21:33 47.05647 -65.41680 36991 ft 454 kts 78°
2026-04-24 21:33 47.06610 -65.32525 36979 ft 454 kts 78°
2026-04-24 21:34 47.07566 -65.23352 36971 ft 454 kts 78°
2026-04-24 21:34 47.08514 -65.14186 36971 ft 454 kts 78°
2026-04-24 21:35 47.09456 -65.05005 36965 ft 454 kts 78°
2026-04-24 21:35 47.10389 -64.95832 36963 ft 454 kts 78°
2026-04-24 21:36 47.11317 -64.86638 36969 ft 456 kts 79°
2026-04-24 21:36 47.12234 -64.77475 36963 ft 456 kts 79°
2026-04-24 21:37 47.13147 -64.68268 36954 ft 455 kts 79°
2026-04-24 21:37 47.14053 -64.59067 36949 ft 455 kts 79°
2026-04-24 21:38 47.14952 -64.49853 36953 ft 455 kts 79°
2026-04-24 21:38 47.15843 -64.40641 36957 ft 456 kts 79°
2026-04-24 21:39 47.16728 -64.31414 36943 ft 456 kts 80°
2026-04-24 21:39 47.17606 -64.22180 36947 ft 456 kts 80°
2026-04-24 21:40 47.18477 -64.12936 36950 ft 456 kts 80°
2026-04-24 21:40 47.19339 -64.03711 36947 ft 455 kts 80°
2026-04-24 21:41 47.20187 -63.94549 36950 ft 455 kts 80°
2026-04-24 21:41 47.21033 -63.85325 36949 ft 455 kts 80°
2026-04-24 21:42 47.21870 -63.76117 36946 ft 455 kts 80°
2026-04-24 21:42 47.22701 -63.66891 36944 ft 455 kts 80°
2026-04-24 21:43 47.23526 -63.57653 36939 ft 455 kts 81°
2026-04-24 21:43 47.24343 -63.48416 36939 ft 455 kts 81°
2026-04-24 21:44 47.25151 -63.39182 36943 ft 454 kts 81°
2026-04-24 21:44 47.25949 -63.29990 36930 ft 452 kts 81°
2026-04-24 21:45 47.26740 -63.20789 36920 ft 453 kts 81°
2026-04-24 21:45 47.27522 -63.11599 36920 ft 453 kts 81°
2026-04-24 21:46 47.28292 -63.02463 36913 ft 453 kts 81°
2026-04-24 21:46 47.29061 -62.93249 36922 ft 453 kts 82°
2026-04-24 21:47 47.29821 -62.84049 36905 ft 451 kts 82°
2026-04-24 21:47 47.30572 -62.74867 36905 ft 452 kts 82°
2026-04-24 21:48 47.31315 -62.65702 36905 ft 450 kts 82°
2026-04-24 21:48 47.32046 -62.56580 36900 ft 450 kts 82°